STARLINK-5163 (54054 NORAD) Tracking and Keplerian Element Data

This shows tracking and keplerian element data for the satellite.

Feedback or suggestion? Click here.




ElementValue
Catalog54054
NameSTARLINK-5163
Epoch Orbit548
Epoch Day325.33334491
Epoch Year2022
RAAN352.6959
Inclination53.2171
Eccentricity0.0001734
Argument of Perigee39.9873
Mean Anonmoly128.8084
Mean Motion15.46050217
Decay Rate-0.01203327
L11 54054U 22136D 22325.33334491 -.01203327 00000+0 -26623-1 0 9995
L22 54054 53.2171 352.6959 0001734 39.9873 128.8084 15.46050217 5481



Live tracking and technical data element details for STARLINK-5163 (NORAD 54054). STARLINK-5163 can be tracked NOW for your location showing map with azimuth and elevation plus other details from your city location.







IsCatalogInMostPopularTable: catalog: 54054, numindb: 1
Update: records affected: 1



GetName: 54054 STARLINK-5163

Hit Count: updated at: Mon, 28 Nov 2022 21:47:01 GMT